EW2167 Weather Reports


Display with metric or nautical units.
time (UTC)temp
F
wind
direction
speed
MPH
gust
MPH
rain 1hr
in
rain 24hr
in
rain mn
in
humidity
%
barometer
mb
20260503031532 37 0 0.0 0.0 0.00 0.00 0.00 81 1019.2
20260503030029 38 0 0.0 0.0 0.00 0.00 0.00 80 1019.1
20260503024531 39 0 0.0 0.0 0.00 0.00 0.00 77 1019.1
20260503023031 38 0 0.0 0.0 0.00 0.00 0.00 77 1019.1
20260503021530 40 0 0.0 0.0 0.00 0.00 0.00 74 1019.0
20260503020034 40 0 0.0 0.0 0.00 0.00 0.00 74 1018.7
20260503014532 40 0 0.0 0.0 0.00 0.00 0.00 72 1018.5
20260503013029 42 0 0.0 1.0 0.00 0.00 0.00 68 1018.5
20260503011532 42 0 0.0 2.0 0.00 0.00 0.00 67 1018.2
20260503010035 46 30 1.0 5.0 0.00 0.00 0.00 57 1018.2
20260503004532 47 30 1.0 10.0 0.00 0.00 0.00 54 1018.1
20260503003029 47 28 2.0 6.0 0.00 0.00 0.00 53 1017.8
20260503001529 48 26 3.0 9.0 0.00 0.00 0.00 51 1017.7
20260503000043 49 20 3.0 11.0 0.00 0.00 0.00 49 1017.6
20260502234531 50 5 2.0 7.0 0.00 0.00 0.00 49 1017.5
20260502233033 50 0 1.0 11.0 0.00 0.00 0.00 50 1017.5
20260502231534 51 13 3.0 7.0 0.00 0.00 0.00 46 1017.4
20260502230032 51 336 3.0 12.0 0.00 0.00 0.00 46 1017.4
20260502224529 51 342 4.0 16.0 0.00 0.00 0.00 48 1017.3
20260502223032 52 16 2.0 9.0 0.00 0.00 0.00 45 1017.2
20260502221533 52 289 1.0 10.0 0.00 0.00 0.00 45 1017.2
20260502220033 52 306 2.0 11.0 0.00 0.00 0.00 44 1017.2
20260502214536 53 284 3.0 12.0 0.00 0.00 0.00 45 1017.0
20260502213039 52 304 3.0 17.0 0.00 0.00 0.00 43 1016.9
20260502211535 52 5 4.0 10.0 0.00 0.00 0.00 44 1017.0
20260502210033 51 352 1.0 11.0 0.00 0.00 0.00 46 1017.0
20260502204536 52 32 5.0 13.0 0.00 0.00 0.00 46 1017.0
20260502203030 53 319 5.0 11.0 0.00 0.00 0.00 45 1017.0
20260502201530 53 13 3.0 13.0 0.00 0.00 0.00 43 1017.1
20260502200031 54 331 5.0 18.0 0.00 0.00 0.00 45 1017.2
20260502194533 54 342 2.0 11.0 0.00 0.00 0.00 43 1017.4
20260502193040 54 271 3.0 16.0 0.00 0.00 0.00 44 1017.3
20260502191533 55 322 2.0 10.0 0.00 0.00 0.00 44 1017.3
20260502190041 54 246 3.0 12.0 0.00 0.00 0.00 43 1017.4
20260502184532 55 288 3.0 10.0 0.00 0.00 0.00 45 1017.5
20260502183030 55 288 5.0 14.0 0.00 0.00 0.00 47 1017.6
20260502181534 54 222 3.0 14.0 0.00 0.00 0.00 47 1017.5
20260502163028 51 5 4.0 13.0 0.00 0.00 0.00 53 1018.2
20260502161530 53 49 3.0 13.0 0.00 0.00 0.00 60 1018.4
20260502151554 48 26 2.0 9.0 0.00 0.00 0.00 59 1018.6
20260502123035 40 28 3.0 6.0 0.00 0.00 0.00 79 1018.3
20260502121538 40 0 0.0 2.0 0.00 0.00 0.00 84 1018.3
20260502114530 36 32 0.0 4.0 0.00 0.00 0.00 89 1017.7
20260502113036 37 27 1.0 3.0 0.00 0.00 0.00 89 1017.5
20260502111534 37 0 0.0 0.0 0.00 0.00 0.00 90 1017.6
20260502110036 35 0 0.0 0.0 0.00 0.00 0.00 91 1017.6
20260502104533 34 0 0.0 0.0 0.00 0.00 0.00 91 1017.5
20260502103032 34 0 0.0 0.0 0.00 0.00 0.00 91 1017.5
20260502101530 34 0 0.0 2.0 0.00 0.00 0.00 90 1017.6
20260502091531 35 0 0.0 0.0 0.00 0.00 0.00 90 1017.7
20260502071528 36 0 0.0 3.0 0.00 0.00 0.00 90 1017.5
20260502070045 36 0 0.0 0.0 0.00 0.00 0.00 89 1017.3
20260502064531 38 0 0.0 3.0 0.00 0.00 0.00 88 1017.3
20260502063040 38 26 2.0 4.0 0.00 0.00 0.00 89 1017.4
20260502061531 37 0 0.0 1.0 0.00 0.00 0.00 89 1017.6
20260502060030 37 26 0.0 1.0 0.00 0.00 0.00 88 1017.9
20260502054536 38 26 1.0 3.0 0.00 0.00 0.00 88 1018.1
20260502053032 38 26 2.0 3.0 0.00 0.00 0.00 88 1017.8
20260502051532 38 26 1.0 3.0 0.00 0.00 0.00 87 1017.8
20260502050038 39 0 0.0 0.0 0.00 0.00 0.00 87 1017.7
20260502044531 39 0 0.0 0.0 0.00 0.00 0.00 87 1017.7
20260502043030 39 0 0.0 0.0 0.00 0.00 0.00 87 1018.0
20260502041532 39 0 0.0 0.0 0.00 0.00 0.00 87 1018.1
20260502040032 39 0 0.0 2.0 0.00 0.00 0.00 86 1018.1
20260502034530 39 0 0.0 2.0 0.00 0.00 0.00 85 1018.1
20260502033032 40 0 0.0 3.0 0.00 0.00 0.00 85 1018.2